Location: Whitehorse
(60.7170°N, 135.0500°W)
Time: 20:03:12
(UTC-08:00)

Envisat - Pass Details

Date: 29 October 2019
Orbit: 764 x 766 km, 98.1° (Epoch: 12 November)

Event Time Altitude Azimuth Distance (km) Brightness Sun altitude
Rises 20:00:05 0° 173° (S) 3,225 6.2 -13.9°
Reaches altitude 10° 20:02:25 10° 177° (S) 2,302 5.5 -14.1°
Maximum altitude 20:07:26 60° 258° (WSW) 878 3.6 -14.8°
Drops below altitude 10° 20:12:29 10° 338° (NNW) 2,317 5.8 -15.4°
Sets 20:14:51 0° 343° (NNW) 3,247 6.5 -15.7°
